Jackson, WY

12:52 AM MST on December 16, 2019 (GMT -0700)
Jackson Hole

Weather History for KJAC - October, 2019

Change the Weather History Date:

Wednesday, October 23, 2019

  Actual Average Record
Temperature  
Mean Temperature 32 °F -  
Max Temperature 41 °F 51 °F 77 °F (2017)
Min Temperature 21 °F 21 °F 8 °F (1984)
Degree Days  
Heating Degree Days 33    
Moisture  
Dew Point 19 °F    
Average Humidity 59    
Maximum Humidity 88    
Minimum Humidity 36    
Precipitation  
Precipitation 0.01 in - - ()
Sea Level Pressure  
Sea Level Pressure 30.27 in    
Wind  
Wind Speed 10 mph ()    
Max Wind Speed 30 mph    
Max Gust Speed 37 mph    
Visibility 9.4 miles    
Events Rain , Snow    
Averages and records for this station are not official NWS values.
T = Trace of Precipitation, MM = Missing Value Source: Averaged Metar Reports

Daily Weather History Graph

Daily Weather History Graph

Search for Another Location

Airport or City:

Astronomy

Oct. 23, 2019 Rise Set
Actual Time 7:46 AM MDT 6:26 PM MDT
Civil Twilight 7:17 AM MDT 6:56 PM MDT
Nautical Twilight 6:44 AM MDT 7:29 PM MDT
Astronomical Twilight 6:10 AM MDT 8:02 PM MDT
Moon 1:56 AM MDT (10/23) 4:31 PM MDT (10/23)
Length of Visible Light 11h 38m
Length of Day
10h 40m
Waning Crescent, 26% of the Moon is Illuminated
Oct 23
Waning Crescent
Oct 27
New
Nov 4
First Quarter
Nov 12
Full
Nov 19
Last Quarter

Hourly Weather History & Observations

Time (MDT) Temp. Windchill Dew Point Humidity Pressure Visibility Wind Dir Wind Speed Gust Speed Precip Events Conditions
12:56 AM 39.9 °F 35.1 °F 25.0 °F 55% 30.13 in 10.0 mi Variable 6.9 mph - 0.00 in   Overcast
1:56 AM 41.0 °F 33.9 °F 21.9 °F 47% 30.14 in 10.0 mi NW 12.7 mph 20.7 mph 0.00 in Rain Light Rain
2:56 AM 37.9 °F 27.1 °F 21.9 °F 53% 30.14 in 7.0 mi NW 23.0 mph 31.1 mph 0.00 in   Overcast
3:56 AM 37.9 °F 25.7 °F 16.0 °F 41% 30.13 in 10.0 mi WNW 29.9 mph 35.7 mph 0.00 in   Overcast
4:56 AM 37.9 °F 26.8 °F 12.9 °F 36% 30.14 in 10.0 mi NW 24.2 mph 36.8 mph N/A   Clear
5:56 AM 36.0 °F 26.0 °F 14.0 °F 41% 30.16 in 10.0 mi NNW 17.3 mph 23.0 mph N/A   Overcast
6:56 AM 35.1 °F 29.3 °F 14.0 °F 42% 30.17 in 10.0 mi WNW 6.9 mph - N/A   Mostly Cloudy
7:56 AM 36.0 °F 26.7 °F 14.0 °F 41% 30.18 in 10.0 mi WNW 15.0 mph 18.4 mph N/A   Overcast
8:56 AM 35.1 °F 27.4 °F 16.0 °F 46% 30.19 in 10.0 mi NW 10.4 mph - 0.00 in Rain Light Rain
9:56 AM 34.0 °F - 19.0 °F 54% 30.24 in 10.0 mi Calm Calm - 0.00 in Rain Light Rain
10:56 AM 36.0 °F 33.3 °F 17.1 °F 46% 30.25 in 10.0 mi Variable 3.5 mph - 0.00 in   Overcast
11:18 AM 33.8 °F 27.7 °F 21.2 °F 60% 30.23 in 1.8 mi NNE 6.9 mph - 0.00 in Snow Light Snow
11:21 AM 33.8 °F - 21.2 °F 60% 30.23 in 7.0 mi Calm Calm - 0.00 in Snow Light Snow
11:56 AM 37.0 °F 33.3 °F 21.0 °F 52% 30.26 in 10.0 mi South 4.6 mph - 0.00 in   Overcast
12:56 PM 34.0 °F 28.0 °F 21.9 °F 61% 30.29 in 9.0 mi SW 6.9 mph - 0.01 in Snow Light Snow
1:56 PM 39.9 °F 36.7 °F 19.9 °F 45% 30.24 in 10.0 mi South 4.6 mph - 0.00 in   Mostly Cloudy
2:56 PM 36.0 °F 33.3 °F 17.1 °F 46% 30.28 in 10.0 mi Variable 3.5 mph - 0.00 in   Mostly Cloudy
3:56 PM 35.1 °F 25.5 °F 18.0 °F 50% 30.30 in 10.0 mi North 15.0 mph 19.6 mph 0.00 in Rain Light Rain
4:56 PM 32.0 °F 21.6 °F 24.1 °F 73% 30.33 in 9.0 mi North 15.0 mph - 0.00 in Snow Light Snow
5:56 PM 30.9 °F 23.5 °F 23.0 °F 72% 30.36 in 10.0 mi North 8.1 mph - N/A   Clear
6:56 PM 30.0 °F 20.5 °F 23.0 °F 75% 30.39 in 10.0 mi North 11.5 mph - N/A   Clear
7:56 PM 26.1 °F 20.5 °F 21.9 °F 84% 30.43 in 10.0 mi NNW 4.6 mph - N/A   Mostly Cloudy
8:56 PM 27.0 °F - 21.0 °F 78% 30.44 in 10.0 mi Calm Calm - N/A   Clear
9:56 PM 23.0 °F 18.4 °F 19.9 °F 88% 30.48 in 10.0 mi North 3.5 mph - N/A   Clear
10:56 PM 23.0 °F 14.7 °F 19.9 °F 88% 30.48 in 10.0 mi NE 6.9 mph - N/A   Mostly Cloudy
11:56 PM 21.0 °F - 18.0 °F 88% 30.50 in 10.0 mi Calm Calm - N/A   Clear